RH
2 2 2 2 3 10 30 61 86 89 95 98 100 100 100 100 100 100 45 16 19 28 37 30 36 46 57 57 55 51 43 38 37 35 28 29 34 49 44 63 80 80 46 64 69 72 73
2 2 2 2 2 2 6 24 70 82 99 100 99 95 100 100 100 100 46 15 25 35 34 36 50 60 58 57 52 45 40 38 35 43 68 80 82 86 78 66 82 73 53 76 62 64 85
3 3 2 2 2 2 2 3 28 86 79 98 99 99 98 100 100 99 46 16 29 34 36 48 60 59 55 57 45 39 37 44 54 59 63 87 98 99 84 86 83 82 87 71 77 81 99
3 3 2 2 2 2 2 2 8 54 84 96 100 97 100 98 100 100 39 19 32 34 42 60 59 49 48 47 47 53 50 50 49 55 79 92 96 98 100 85 90 93 99 84 75 88 90
3 3 3 3 3 3 3 3 3 48 79 83 100 97 100 100 100 99 33 24 33 38 54 59 50 41 48 49 51 53 59 48 39 55 89 96 96 97 99 96 94 89 90 86 84 83 97
5 6 5 6 6 5 4 5 4 8 72 79 92 100 100 100 100 100 23 28 36 48 54 43 47 54 58 69 68 77 47 34 40 64 87 97 97 95 96 96 93 91 87 80 88 87 98
6 7 8 8 9 10 9 7 6 4 26 93 94 99 99 100 100 99 18 31 38 47 45 43 65 66 63 82 72 72 42 33 44 76 96 98 97 89 65 63 90 93 75 78 82 82 83
13 16 17 19 22 18 13 10 9 8 5 47 93 91 100 100 100 89 18 31 46 29 46 57 66 56 57 62 53 51 46 53 72 88 97 95 93 90 95 82 93 93 78 96 92 80 85
63 56 57 60 47 33 25 15 11 10 9 7 34 76 99 100 100 64 23 31 50 29 45 58 54 49 65 61 75 95 95 91 93 86 94 100 99 94 94 99 98 80 88 91 91 86 99
94 89 83 73 68 48 38 27 18 16 11 9 43 88 99 100 99 53 24 34 52 38 37 48 61 76 77 73 94 96 99 99 100 95 96 98 98 94 97 99 96 72 70 65 63 98 98
89 92 82 71 63 60 46 28 23 20 14 49 84 94 99 99 99 32 29 47 53 32 42 42 62 73 88 98 98 98 100 98 96 95 99 98 99 91 98 88 90 67 82 69 67 66 69
94 83 84 78 82 79 71 72 32 21 16 89 93 95 99 99 98 35 29 54 41 42 38 40 56 76 91 96 99 89 82 92 98 99 98 98 92 97 99 92 84 80 74 73 79 68 81
94 86 87 90 94 93 94 80 35 31 24 100 100 96 99 99 83 30 33 56 51 42 38 52 68 78 86 93 98 100 93 89 97 90 84 95 99 97 88 86 76 75 69 92 87 82 87
96 88 89 94 92 90 92 89 86 50 64 99 100 98 99 99 48 28 39 56 60 35 40 50 69 75 78 81 88 91 97 93 87 80 78 82 96 91 88 84 98 88 69 74 91 94 80
95 86 94 91 91 96 97 95 84 34 97 99 99 98 99 99 35 32 51 61 41 26 32 50 61 63 71 73 72 76 80 84 91 71 73 94 99 100 90 95 97 89 71 62 66 73 79
84 88 88 57 60 97 97 98 52 88 100 98 98 98 99 95 34 40 54 57 42 25 30 43 46 51 66 68 67 61 66 79 81 71 78 89 97 100 99 95 84 79 67 63 53 75 58
88 86 71 28 92 98 96 98 45 98 98 99 98 99 98 53 35 47 56 57 37 37 36 41 37 56 66 70 74 65 64 77 82 74 71 68 78 99 91 96 78 69 62 58 60 60 64
90 71 38 55 98 100 94 77 98 98 94 99 98 99 98 44 44 46 53 52 38 36 39 40 45 57 72 66 65 62 64 61 76 76 70 63 86 89 98 92 75 72 66 56 49 64 60
84 48 34 95 98 74 75 100 76 96 96 99 99 99 98 39 45 43 50 51 43 32 40 47 60 58 62 61 60 59 66 56 53 63 71 72 75 81 80 76 70 74 68 64 57 57 58
68 34 90 99 92 80 36 56 64 80 98 99 99 97 75 47 41 50 47 51 53 48 38 51 57 58 62 65 64 60 62 62 53 56 66 66 66 60 67 71 71 67 64 64 63 61 59
26 77 98 96 83 87 94 80 90 94 98 98 99 87 47 31 38 48 51 57 51 52 58 55 60 54 55 59 62 59 59 61 66 64 58 61 78 83 79 77 76 73 70 64 64 66 66
67 96 98 100 100 66 51 59 98 98 98 98 97 32 22 25 35 49 51 58 57 49 51 55 52 60 63 61 62 58 62 62 68 75 68 69 72 72 68 70 71 72 72 70 69 70 68
100 97 100 99 100 97 93 97 98 98 99 99 71 28 24 27 39 46 43 54 62 55 58 58 60 67 68 64 57 59 64 64 70 74 71 68 69 66 62 65 61 57 62 62 63 63 61
100 97 98 98 99 99 95 97 98 98 99 97 37 34 31 30 40 45 48 50 58 64 59 58 63 68 64 62 60 57 61 67 72 71 74 71 68 63 66 59 58 58 60 58 55 55 57
99 84 87 91 93 96 93 99 98 98 99 35 35 44 37 31 42 55 54 49 62 69 70 64 67 69 68 72 71 65 64 65 68 71 69 69 69 65 62 64 54 52 58 61 55 56 50
80 63 73 92 96 97 96 100 98 98 60 37 38 44 44 47 65 60 53 49 52 66 71 73 75 77 72 73 73 60 56 64 61 65 68 71 73 72 75 74 70 58 69 67 58 51 70
49 43 64 79 94 94 96 99 97 65 34 34 34 38 34 56 56 60 54 54 62 69 67 74 77 80 77 73 72 62 58 57 61 63 64 70 77 86 86 90 64 56 61 61 63 49 59
38 49 50 70 85 89 94 100 95 76 37 30 29 32 41 46 50 56 58 63 59 63 62 64 82 82 82 78 73 64 59 60 64 64 62 58 60 66 90 92 72 53 59 59 54 64 65
30 48 45 76 77 88 97 98 96 75 38 29 28 31 41 41 50 53 54 71 68 67 61 64 63 61 71 71 62 61 59 60 62 63 62 63 56 54 47 54 54 55 61 60 64 60 62
Wind_Speed
46 47 44 43 41 39 36 32 30 31 30 40 34 37 33 36 36 37 37 34 28 22 20 22 18 16 16 16 17 19 18 17 17 19 21 21 23 24 28 35 30 32 39 37 32 28 45
47 46 45 46 43 42 40 37 34 29 33 32 36 35 34 41 33 34 36 32 25 21 20 19 15 13 14 18 18 16 13 14 14 15 17 20 23 22 26 31 30 29 36 32 27 37 36
47 46 45 45 46 45 42 37 38 34 34 38 31 40 36 39 35 36 35 29 24 20 19 15 12 14 18 14 15 14 11 10 10 14 18 21 13 21 24 24 29 27 17 31 31 34 33
47 47 47 46 46 45 44 39 37 36 33 33 33 36 31 37 36 35 33 25 20 19 16 11 12 16 13 14 9 12 10 11 10 14 14 15 10 21 18 24 19 25 19 21 32 21 50
49 48 47 47 46 45 47 42 41 37 35 34 28 34 38 35 31 33 30 21 17 15 11 10 14 13 9 9 11 12 15 15 11 12 14 13 9 14 19 18 18 22 21 22 19 26 33
50 48 46 45 43 41 43 41 40 39 37 38 34 28 33 33 32 28 25 17 13 12 8 12 7 9 9 10 10 11 14 12 11 12 15 14 13 16 22 21 18 23 29 22 21 16 16
49 49 48 47 46 44 38 37 38 35 40 38 40 35 37 32 28 23 21 12 9 7 10 8 8 11 11 8 10 6 8 9 11 13 14 13 8 20 24 27 15 14 31 18 19 16 12
47 47 48 46 44 44 42 41 37 32 32 42 42 40 33 33 30 17 16 9 4 3 6 9 11 12 10 8 7 8 6 10 10 12 8 8 8 12 19 24 24 22 23 15 13 9 14
39 40 41 41 42 43 40 40 44 38 29 35 40 40 32 27 29 16 11 6 2 4 3 10 11 10 10 7 9 10 5 5 7 6 5 7 4 9 20 21 21 31 22 25 23 17 5
38 41 43 43 41 47 45 39 45 46 30 30 33 35 34 30 25 13 9 5 4 7 3 6 10 9 8 5 9 13 9 4 3 6 2 3 2 11 12 25 26 30 19 23 20 14 8
42 44 44 43 39 37 38 40 42 47 36 24 33 33 33 30 25 11 7 6 7 7 3 0 5 6 9 12 11 11 7 5 7 1 3 4 6 15 13 21 22 24 22 20 16 10 6
42 40 39 37 31 29 31 28 34 42 35 24 29 34 34 26 11 9 9 9 10 4 3 2 1 6 13 17 21 16 11 9 9 16 12 15 14 11 17 22 16 24 25 22 16 8 4
40 38 37 33 30 30 26 28 29 34 27 16 24 38 32 24 10 8 12 13 7 4 9 7 6 6 14 16 16 16 13 6 9 9 16 17 29 26 24 24 22 23 20 4 4 3 2
41 39 35 33 32 33 34 23 23 20 34 17 23 31 33 28 11 10 15 17 6 9 10 11 10 10 12 17 19 16 16 14 14 12 9 11 10 13 20 17 16 17 6 3 4 3 2
42 37 31 35 36 29 25 29 22 29 37 13 26 30 34 13 13 14 19 14 3 17 12 14 10 5 6 8 9 12 15 10 10 10 4 6 8 13 8 12 13 10 10 9 11 9 4
40 32 30 33 32 32 27 7 17 37 21 33 32 31 28 16 14 18 21 11 7 17 19 16 4 5 4 3 3 4 5 5 9 10 10 13 10 15 13 11 7 8 6 3 4 4 2
35 30 30 27 32 21 2 9 35 36 18 26 28 33 22 18 16 22 23 12 11 15 20 15 4 8 6 5 5 4 6 6 9 11 11 8 6 10 7 11 14 10 4 6 8 6 3
30 29 29 30 21 3 12 25 23 35 19 24 32 26 21 20 23 25 24 15 16 20 19 11 10 10 7 6 4 5 4 3 5 8 10 5 11 9 11 12 9 5 5 6 4 3 5
27 27 26 25 19 8 18 21 23 32 23 19 35 22 20 21 23 23 23 16 19 23 18 12 11 9 10 5 3 5 4 5 5 5 6 5 8 7 4 5 8 4 4 3 6 6 3
23 20 24 11 8 6 21 17 18 27 28 17 31 19 25 23 23 22 23 19 22 20 18 14 15 11 9 5 3 4 5 4 4 5 7 8 8 5 7 5 6 5 6 5 5 4 5
14 18 20 9 8 22 17 8 12 27 18 22 27 16 17 23 30 24 23 21 24 21 17 16 16 11 8 4 4 4 2 5 4 4 4 7 9 10 10 8 6 5 3 6 8 8 6
11 24 21 22 14 13 9 7 16 17 20 21 23 6 15 12 27 25 25 23 25 23 19 18 13 11 9 2 1 4 3 2 2 3 4 5 6 5 5 3 1 3 4 5 6 8 12
14 20 17 18 8 12 10 10 11 11 21 17 17 11 10 13 31 26 26 25 24 20 17 16 10 10 8 6 6 6 5 3 6 6 5 4 5 3 1 1 3 2 1 1 3 4 7
19 22 25 13 14 9 17 6 15 19 18 21 16 12 9 12 31 24 25 21 23 19 13 17 14 12 11 9 7 6 4 5 5 5 4 3 2 2 0 2 2 2 3 3 2 3 4
15 14 23 21 15 8 6 11 19 19 23 19 15 9 7 12 24 25 24 21 23 20 13 16 17 14 12 9 7 3 3 2 3 3 3 3 3 1 1 2 5 4 4 3 6 5 11
11 15 13 22 2 8 7 13 22 26 21 20 14 11 5 19 25 23 23 20 24 22 16 17 18 16 13 11 6 3 2 2 2 2 8 6 4 2 0 2 2 2 4 6 10 11 9
13 13 11 13 10 2 13 13 29 23 18 20 13 13 7 17 24 22 22 22 22 23 19 20 19 16 14 13 10 5 4 3 2 2 3 7 7 9 6 4 5 9 10 11 6 4 10
10 11 16 18 15 5 11 16 30 21 18 18 14 12 10 7 21 21 20 21 21 22 19 19 19 21 16 13 8 6 6 7 6 5 4 4 3 4 8 6 5 6 9 7 11 16 23
9 11 11 10 19 5 11 13 31 13 16 14 14 11 11 6 16 22 18 20 19 18 16 19 20 10 18 14 12 8 8 6 11 5 11 6 9 3 7 4 6 9 12 17 22 28 32
Wind_Direction
292 289 288 290 289 283 277 272 275 280 287 308 307 306 303 306 320 326 330 332 322 313 303 299 303 300 295 283 281 279 280 281 278 274 270 263 260 252 244 239 227 225 223 229 227 230 215
293 291 289 289 288 288 282 274 268 272 288 311 294 297 312 297 319 326 330 332 323 312 305 306 310 303 291 289 282 284 280 276 273 272 271 268 269 250 241 235 226 223 226 218 211 216 222
289 288 287 287 287 288 285 281 269 263 271 284 297 299 299 300 305 321 330 332 323 316 308 312 313 305 297 288 289 286 276 269 279 279 280 290 256 230 227 226 217 217 238 218 215 218 211
288 285 284 283 282 283 285 282 273 263 263 279 294 294 296 300 299 314 330 333 325 314 317 315 315 304 303 301 294 282 267 264 281 282 279 280 289 209 213 219 213 213 209 216 214 225 218
291 289 285 283 280 280 281 282 274 261 260 262 291 281 293 300 292 312 331 333 321 322 326 322 314 311 309 314 309 286 271 269 284 279 273 275 257 213 206 207 208 200 207 210 209 214 222
293 292 291 290 288 285 277 279 276 262 258 263 266 283 293 298 294 311 333 325 322 331 339 327 328 334 327 326 309 304 282 291 283 280 274 277 267 224 211 196 207 187 197 210 199 206 236
295 293 292 290 287 287 282 279 277 272 256 264 263 275 296 300 286 314 326 320 316 337 342 351 5 4 339 319 333 313 297 277 280 270 276 281 256 203 217 202 200 196 185 195 194 204 212
294 293 292 289 287 284 280 277 279 277 266 256 261 262 282 276 293 329 317 307 313 15 19 31 24 11 3 6 348 329 293 286 270 269 271 266 241 213 186 210 225 177 179 163 159 175 204
302 298 296 298 296 290 279 273 272 272 274 257 258 263 273 285 286 327 305 285 226 160 22 26 21 13 359 13 348 10 4 303 277 264 232 223 281 236 200 181 181 175 170 157 144 148 123
306 303 301 302 298 292 285 276 269 272 264 260 254 256 265 284 285 316 289 253 193 213 279 21 15 4 355 352 20 21 19 47 2 126 109 316 22 156 163 167 161 173 184 175 150 132 93
304 306 303 301 294 296 290 273 264 261 255 250 248 254 259 277 282 312 261 208 187 192 17 123 3 45 53 43 25 34 77 83 91 27 346 74 117 173 148 155 153 161 166 167 173 193 117
309 308 309 307 297 291 281 280 263 257 250 230 240 243 248 266 279 290 226 182 175 193 259 157 26 91 63 63 72 67 92 95 80 98 68 63 147 137 119 148 155 144 151 152 153 152 79
314 311 307 304 304 300 302 276 255 256 229 221 234 241 248 251 254 253 207 179 178 204 158 151 150 97 83 72 62 77 77 89 59 91 67 66 76 108 125 132 145 149 139 88 54 56 116
314 310 308 311 310 301 294 272 266 247 197 214 236 238 239 246 209 219 199 186 218 171 147 172 151 114 93 87 77 83 88 94 86 61 75 54 55 82 121 133 139 126 106 118 132 136 62
313 311 308 316 307 300 301 289 258 193 185 234 222 233 234 212 190 199 192 197 232 178 159 167 151 117 91 91 90 80 83 83 42 63 77 84 72 93 112 101 139 114 78 94 99 94 95
314 310 310 313 307 306 319 15 208 175 194 214 209 222 223 191 181 193 190 205 188 181 166 174 169 152 130 99 66 88 63 51 54 64 94 102 94 102 118 142 126 128 79 121 101 103 91
312 308 310 314 319 347 303 170 180 192 186 194 210 207 200 192 182 194 196 204 181 175 168 176 187 145 135 96 78 71 86 81 85 75 109 93 109 127 90 113 119 123 68 63 78 74 130
312 313 317 322 348 303 223 182 169 185 189 194 204 192 188 193 183 198 197 198 190 179 176 174 160 153 139 121 85 73 85 99 89 74 72 105 123 101 99 126 138 112 88 61 52 84 81
315 320 320 329 359 216 178 164 194 180 198 203 194 196 189 196 192 196 195 194 189 188 186 171 160 166 153 122 92 103 84 125 133 51 55 92 133 111 88 140 163 166 176 124 94 80 62
320 324 329 353 324 259 191 199 200 196 210 213 204 167 177 193 203 196 197 190 184 184 192 184 165 164 165 152 136 147 118 106 121 91 75 87 105 109 142 122 151 180 198 197 199 172 182
338 345 12 20 13 129 116 81 205 202 211 207 211 196 199 209 201 192 191 191 183 178 183 179 176 177 182 156 142 151 127 124 124 121 98 102 99 101 106 124 120 126 170 228 243 249 244
26 7 27 77 73 118 178 256 180 190 198 205 190 164 205 214 193 189 188 186 187 185 183 181 183 182 184 180 134 142 123 113 83 126 116 85 116 114 91 88 190 224 240 243 233 239 257
53 21 52 81 117 110 128 175 194 195 207 215 179 194 212 203 183 190 188 187 186 190 188 184 185 183 167 146 139 135 121 126 134 135 122 100 115 113 84 359 328 299 130 289 287 281 284
59 37 36 58 58 101 180 147 201 202 215 183 181 206 210 191 183 183 185 190 185 186 199 186 181 182 170 159 148 139 128 113 134 149 138 144 146 112 50 324 29 145 239 280 266 311 295
77 34 16 42 49 61 133 174 195 207 183 174 180 185 203 197 176 181 182 186 185 183 179 191 182 178 178 178 171 171 190 200 198 186 176 170 157 113 1 303 291 207 224 253 285 291 277
58 39 34 30 298 49 144 177 195 178 174 181 177 167 160 173 178 181 184 185 188 187 185 189 188 185 191 197 203 213 205 205 203 231 221 221 225 244 194 328 234 255 236 267 296 287 248
50 34 28 358 26 101 169 182 177 171 181 181 168 170 159 175 184 180 185 185 189 194 197 190 191 192 203 211 216 226 224 205 234 224 213 215 231 233 240 272 280 255 263 277 277 259 271
66 51 11 12 34 154 169 177 181 176 190 191 179 173 167 152 186 185 189 195 195 198 204 200 197 206 202 204 216 215 233 221 231 228 223 215 211 203 205 221 270 264 269 270 289 292 293
74 61 10 4 24 33 175 182 179 191 183 191 187 177 168 175 194 192 195 196 198 202 210 212 209 216 212 205 211 213 224 228 225 228 222 224 219 222 218 234 270 291 291 295 294 295 297